Flag for Norway Weather past 2 weeks in Stavern, Norway

Now
36 °F

Passing clouds.


Feels Like: 28 °F
Forecast: 33 / 38 °F
Wind: 10 mph from Southwest

Location: Torp

Current Time: Dec 19, 2014 at 1:39:11 AM

Latest Report: Dec 19, 2014 at 12:50 AM


Visibility: N/A

Pressure: 29.12 "Hg

Humidity: 93%

Dew point: 34 °F

Location of StavernLocation

Historic Weather in Stavern — Graph

°F

Stavern temperature yesterday

Maximum temperature yesterday: 41 °F (at 6:20 PM)
Minimum temperature yesterday: 28 °F (at 4:20 AM)
Average temperature yesterday: 34 °F

Past Weeks' High & Low Weather Summary

 TemperatureHumidityPressure
High46 °F (Dec 7, 7:50 AM)100% (Dec 4, 2:20 AM)30.18 "Hg (Dec 4, 2:20 AM)
Low23 °F (Dec 17, 8:20 AM)60% (Dec 16, 12:50 AM)28.97 "Hg (Dec 12, 6:50 PM)
Average35 °F88%29.49 "Hg
* Reported Dec 4 12:20 AM — Dec 19 12:20 AM, Stavern, Weather by CustomWeather, © 2014

Note: Actual official high and low records may vary slightly from our data, if they occured in-between our weather recording intervals... More about our weather records

Advertising

Stavern weather history for previous 24 hours

 ConditionsComfort  
Time TempWeatherWind HumidityBarometerVisibility
12:20 AM
Dec 19
36 °FPassing clouds.9 mph100%29.12 "HgN/A
11:50 PM
Dec 18
37 °FPassing clouds.7 mph93%29.12 "HgN/A
11:20 PM37 °FPassing clouds.7 mph93%29.12 "HgN/A
10:50 PM37 °FClear.5 mph93%29.12 "Hg10 mi
10:20 PM39 °FClear.5 mph93%29.12 "Hg10 mi
9:50 PM39 °FClear.6 mph93%29.12 "Hg10 mi
9:20 PM39 °FPassing clouds.10 mph93%29.12 "HgN/A
8:50 PM39 °FOvercast.10 mph93%29.15 "HgN/A
8:20 PM39 °FOvercast.9 mph93%29.15 "HgN/A
7:50 PM41 °FMostly cloudy.13 mph93%29.15 "HgN/A
7:20 PM41 °FClear.9 mph93%29.15 "HgN/A
6:50 PM41 °FClear.9 mph93%29.18 "HgN/A
6:20 PM41 °FClear.8 mph93%29.18 "Hg6 mi
5:50 PM39 °FClear.6 mph100%29.21 "Hg4 mi
5:20 PM39 °FClear.6 mph100%29.21 "Hg4 mi
4:50 PM39 °FPassing clouds.9 mph100%29.21 "Hg5 mi
4:20 PM39 °FClear.10 mph93%29.21 "Hg5 mi
3:50 PM37 °FPassing clouds.8 mph100%29.21 "Hg5 mi
3:20 PM37 °FPartly cloudy.7 mph100%29.21 "Hg6 mi
2:50 PM37 °FPartly sunny.7 mph93%29.24 "Hg4 mi
2:20 PM36 °FPartly sunny.9 mph100%29.24 "Hg6 mi
1:50 PM36 °FPassing clouds.8 mph100%29.24 "HgN/A
1:20 PM36 °FSunny.9 mph100%29.24 "Hg10 mi
12:50 PM34 °FClear.7 mph100%29.27 "HgN/A
12:20 PM34 °FClear.3 mph100%29.30 "Hg6 mi
11:50 AM30 °FClear.1 mph100%29.30 "Hg6 mi
11:20 AM30 °FPassing clouds.1 mph100%29.30 "HgN/A
10:50 AM30 °FPartly sunny.1 mph100%29.30 "HgN/A
10:20 AM32 °FPartly sunny.3 mph100%29.30 "Hg5 mi
9:50 AM32 °FPassing clouds.5 mph93%29.30 "HgN/A
9:20 AM30 °FClear.2 mph100%29.33 "Hg6 mi
8:50 AM30 °FPassing clouds.3 mph100%29.33 "Hg5 mi
8:20 AM30 °FPassing clouds.3 mph100%29.33 "Hg4 mi
7:50 AM30 °FIce fog.3 mph100%29.33 "Hg2 mi
7:20 AM30 °FIce fog.1 mph100%29.33 "Hg1 mi
6:50 AM30 °FIce fog.1 mph100%29.33 "Hg1 mi
6:20 AM30 °FIce fog.3 mph100%29.33 "Hg1 mi
5:50 AM30 °FIce fog.3 mph100%29.33 "Hg1 mi
5:20 AM30 °FIce fog.5 mph100%29.33 "Hg0 mi
4:20 AM28 °FIce fog.2 mph100%29.33 "Hg1 mi
3:50 AM30 °FIce fog.3 mph93%29.36 "Hg1 mi
3:20 AM30 °FIce fog.3 mph93%29.36 "Hg1 mi
2:50 AM30 °FLow clouds.3 mph93%29.33 "Hg5 mi
2:20 AM30 °FLow clouds.7 mph93%29.36 "Hg4 mi
1:50 AM30 °FIce fog.8 mph100%29.36 "Hg1 mi
1:20 AM30 °FLight snow. Mostly cloudy.9 mph100%29.36 "Hg2 mi
Weather by CustomWeather, © 2014

See weather overviewHow to use our weather pages